NOAA 16 DEB

基本信息
目录编号:
42361
目录名称:
NOAA 16 DEB
国际标识:
2000-055RD
轨道中心:
EARTH
物体状态:
已陨落(2026-04-14)
发射日期:
2000-09-21 UTC
轨道信息
数据来源: 国际轨道数据
星历时间: 2026-04-08T04:56:58+0800
半长轴: 6778.759km
偏心率: 0.0031496
轨道倾角: 98.888°
近地点辐角: 304.683°
升交点赤经: 244.868°
平近点角: 55.146°
近地点: 379.271km
远地点: 421.973km
周期: 92.573分钟
每日圈数: 15.555268
详细信息
发射场:
AFWTR
轨道高度:
LEO
数据来源:
AOE Integration Group
参考系:
TEME
时间系统:
UTC
历元类型:
SGP4
2D轨道图
3D轨道图
轨道高度分析图
轨道倾角分析图
轨道综合分析图
查看轨道综合分析图